Time,TemperatureF,DewpointF,PressureIn,WindDirection,WindDirectionDegrees,WindSpeedMPH,WindSpeedGustMPH,Humidity,HourlyPrecipIn,Conditions,Clouds,dailyrainin,SolarRadiationWatts/m^2,SoftwareType,DateUTC
2013-04-05 00:01:00,36.2,19.4,29.93,West,261,0.0,1.0,50,0.00,,CLR,0.00,0.00,VWS V14.01,2013-04-05 04:01:00,
2013-04-05 00:10:00,36.8,19.0,29.93,West,261,0.0,0.0,48,0.00,,CLR,0.00,0.00,VWS V14.01,2013-04-05 04:10:00,
2013-04-05 00:20:00,36.6,19.7,29.92,West,261,0.0,0.0,50,0.00,,CLR,0.00,0.00,VWS V14.01,2013-04-05 04:20:00,
2013-04-05 00:30:00,36.5,19.6,29.92,West,261,0.0,0.0,50,0.00,,CLR,0.00,0.00,VWS V14.01,2013-04-05 04:30:00,
2013-04-05 00:40:00,36.0,20.5,29.92,West,261,3.0,5.0,53,0.00,,CLR,0.00,0.00,VWS V14.01,2013-04-05 04:40:00,
2013-04-05 00:50:00,36.2,21.2,29.92,WSW,254,4.0,6.0,54,0.00,,CLR,0.00,0.00,VWS V14.01,2013-04-05 04:50:00,
2013-04-05 01:00:00,37.0,21.5,29.92,WSW,242,4.0,6.0,53,0.00,,CLR,0.00,0.00,VWS V14.01,2013-04-05 05:00:00,
2013-04-05 01:10:00,37.6,22.0,29.92,WSW,242,4.0,9.0,53,0.00,,CLR,0.00,0.00,VWS V14.01,2013-04-05 05:10:00,
2013-04-05 01:20:00,38.2,22.1,29.90,WSW,243,6.0,11.0,52,0.00,,CLR,0.00,0.00,VWS V14.01,2013-04-05 05:20:00,
2013-04-05 01:30:00,38.3,22.2,29.89,WSW,250,0.0,12.0,52,0.00,,CLR,0.00,0.00,VWS V14.01,2013-04-05 05:30:00,
2013-04-05 01:40:00,39.1,22.5,29.89,WSW,252,6.0,15.0,51,0.00,,CLR,0.00,0.00,VWS V14.01,2013-04-05 05:40:00,
2013-04-05 01:50:00,39.2,22.6,29.88,WSW,247,7.0,16.0,51,0.00,,CLR,0.00,0.00,VWS V14.01,2013-04-05 05:50:00,
2013-04-05 02:00:00,39.3,22.7,29.88,SW,231,5.0,14.0,51,0.00,,CLR,0.00,0.00,VWS V14.01,2013-04-05 06:00:00,
2013-04-05 02:10:00,39.1,22.5,29.88,West,262,6.0,13.0,51,0.00,,CLR,0.00,0.00,VWS V14.01,2013-04-05 06:10:00,
2013-04-05 02:20:00,38.5,22.9,29.87,WSW,250,3.0,12.0,53,0.00,,CLR,0.00,0.00,VWS V14.01,2013-04-05 06:20:00,
2013-04-05 02:30:00,38.5,22.9,29.87,WSW,248,3.0,11.0,53,0.00,,CLR,0.00,0.00,VWS V14.01,2013-04-05 06:30:00,
2013-04-05 02:40:00,38.8,22.7,29.87,West,268,2.0,7.0,52,0.00,,CLR,0.00,0.00,VWS V14.01,2013-04-05 06:40:00,
2013-04-05 02:50:00,38.0,23.3,29.87,West,266,4.0,10.0,55,0.00,,CLR,0.00,0.00,VWS V14.01,2013-04-05 06:50:00,
2013-04-05 03:01:00,37.0,23.2,29.87,West,267,0.0,6.0,57,0.00,,CLR,0.00,0.00,VWS V14.01,2013-04-05 07:01:00,
2013-04-05 03:10:00,36.9,23.5,29.87,West,267,0.0,3.0,58,0.00,,CLR,0.00,0.00,VWS V14.01,2013-04-05 07:10:00,
2013-04-05 03:21:00,36.0,23.5,29.87,West,268,0.0,4.0,60,0.00,,CLR,0.00,0.00,VWS V14.01,2013-04-05 07:21:00,
2013-04-05 03:30:00,35.2,24.3,29.87,West,268,2.0,4.0,64,0.00,,CLR,0.00,0.00,VWS V14.01,2013-04-05 07:30:00,
2013-04-05 03:40:00,34.6,24.4,29.87,West,268,1.0,3.0,66,0.00,,CLR,0.00,0.00,VWS V14.01,2013-04-05 07:40:00,
2013-04-05 03:50:00,34.6,24.4,29.87,West,267,2.0,3.0,66,0.00,,CLR,0.00,0.00,VWS V14.01,2013-04-05 07:50:00,
2013-04-05 04:00:00,34.6,24.1,29.87,West,267,0.0,4.0,65,0.00,,CLR,0.00,0.00,VWS V14.01,2013-04-05 08:00:00,
2013-04-05 04:10:00,34.6,24.1,29.87,West,267,1.0,3.0,65,0.00,,CLR,0.00,0.00,VWS V14.01,2013-04-05 08:10:00,
2013-04-05 04:21:00,34.3,24.5,29.87,West,267,0.0,1.0,67,0.00,,CLR,0.00,0.00,VWS V14.01,2013-04-05 08:21:00,
2013-04-05 04:30:00,34.1,24.7,29.86,West,267,0.0,0.0,68,0.00,,CLR,0.00,0.00,VWS V14.01,2013-04-05 08:30:00,
2013-04-05 04:40:00,34.0,24.9,29.86,West,267,0.0,3.0,69,0.00,,CLR,0.00,0.00,VWS V14.01,2013-04-05 08:40:00,
2013-04-05 04:50:00,34.0,24.6,29.85,West,267,0.0,0.0,68,0.00,,CLR,0.00,0.00,VWS V14.01,2013-04-05 08:50:00,
2013-04-05 05:01:00,34.0,24.9,29.85,West,267,0.0,0.0,69,0.00,,CLR,0.00,0.00,VWS V14.01,2013-04-05 09:01:00,
2013-04-05 05:11:00,34.0,24.9,29.85,West,267,0.0,0.0,69,0.00,,CLR,0.00,0.00,VWS V14.01,2013-04-05 09:11:00,
2013-04-05 05:20:00,34.1,24.7,29.85,West,267,0.0,0.0,68,0.00,,CLR,0.00,0.00,VWS V14.01,2013-04-05 09:20:00,
2013-04-05 05:31:00,33.8,25.1,29.85,West,267,0.0,0.0,70,0.00,,CLR,0.00,0.00,VWS V14.01,2013-04-05 09:31:00,
2013-04-05 05:40:00,34.3,24.9,29.85,West,267,0.0,0.0,68,0.00,,CLR,0.00,0.00,VWS V14.01,2013-04-05 09:40:00,
2013-04-05 05:51:00,34.1,25.4,29.85,West,267,0.0,3.0,70,0.00,,CLR,0.00,0.00,VWS V14.01,2013-04-05 09:51:00,
2013-04-05 06:00:00,33.8,25.7,29.83,West,267,0.0,3.0,72,0.00,,CLR,0.00,0.00,VWS V14.01,2013-04-05 10:00:00,
2013-04-05 06:11:00,33.5,25.5,29.83,West,267,0.0,2.0,72,0.00,,CLR,0.00,0.00,VWS V14.01,2013-04-05 10:11:00,
2013-04-05 06:21:00,33.5,25.5,29.83,West,267,0.0,0.0,72,0.00,,CLR,0.00,0.00,VWS V14.01,2013-04-05 10:21:00,
2013-04-05 06:31:00,33.8,25.4,29.83,West,267,0.0,2.0,71,0.00,,CLR,0.00,0.00,VWS V14.01,2013-04-05 10:31:00,
2013-04-05 06:40:00,33.5,25.8,29.83,West,267,0.0,2.0,73,0.00,,CLR,0.00,7.00,VWS V14.01,2013-04-05 10:40:00,
2013-04-05 06:50:00,33.8,25.4,29.84,West,267,0.0,1.0,71,0.00,,CLR,0.00,23.00,VWS V14.01,2013-04-05 10:50:00,
2013-04-05 07:11:00,34.0,26.3,29.83,West,267,0.0,4.0,73,0.00,,CLR,0.00,32.00,VWS V14.01,2013-04-05 11:11:00,
2013-04-05 07:20:00,34.7,26.3,29.84,WSW,251,5.0,5.0,71,0.00,,CLR,0.00,42.00,VWS V14.01,2013-04-05 11:20:00,
2013-04-05 07:31:00,35.2,26.4,29.84,WSW,252,2.0,9.0,70,0.00,,CLR,0.00,53.00,VWS V14.01,2013-04-05 11:31:00,
2013-04-05 07:41:00,35.5,26.7,29.84,WSW,254,2.0,7.0,70,0.00,,CLR,0.00,81.00,VWS V14.01,2013-04-05 11:41:00,
2013-04-05 07:51:00,36.0,26.5,29.83,WSW,255,3.0,10.0,68,0.00,,CLR,0.00,91.00,VWS V14.01,2013-04-05 11:51:00,
2013-04-05 08:00:00,36.5,27.0,29.84,WSW,257,4.0,5.0,68,0.00,,CLR,0.00,79.00,VWS V14.01,2013-04-05 12:00:00,
2013-04-05 08:11:00,36.5,26.6,29.84,WSW,257,3.0,5.0,67,0.00,,CLR,0.00,79.00,VWS V14.01,2013-04-05 12:11:00,
2013-04-05 08:20:00,36.3,27.1,29.84,West,264,3.0,6.0,69,0.00,,CLR,0.00,79.00,VWS V14.01,2013-04-05 12:20:00,
2013-04-05 08:31:00,36.6,26.7,29.84,West,268,4.0,6.0,67,0.00,,CLR,0.00,109.00,VWS V14.01,2013-04-05 12:31:00,
2013-04-05 08:40:00,37.2,26.9,29.84,WSW,255,10.0,10.0,66,0.00,,CLR,0.00,169.00,VWS V14.01,2013-04-05 12:40:00,
2013-04-05 08:51:00,37.9,26.5,29.82,WSW,253,4.0,10.0,63,0.00,,CLR,0.00,174.00,VWS V14.01,2013-04-05 12:51:00,
2013-04-05 09:01:00,38.6,26.3,29.82,West,271,5.0,9.0,61,0.00,,CLR,0.00,156.00,VWS V14.01,2013-04-05 13:01:00,
2013-04-05 09:11:00,39.1,26.4,29.82,WSW,258,6.0,9.0,60,0.00,,CLR,0.00,146.00,VWS V14.01,2013-04-05 13:11:00,
2013-04-05 09:21:00,39.5,25.5,29.82,WSW,255,5.0,7.0,57,0.00,,CLR,0.00,156.00,VWS V14.01,2013-04-05 13:21:00,
2013-04-05 09:30:00,40.1,25.7,29.81,WSW,256,5.0,10.0,56,0.00,,CLR,0.00,100.00,VWS V14.01,2013-04-05 13:30:00,
2013-04-05 09:40:00,40.3,25.9,29.81,SW,221,2.0,11.0,56,0.00,,CLR,0.00,97.00,VWS V14.01,2013-04-05 13:40:00,
2013-04-05 09:50:00,40.9,25.1,29.79,WSW,243,5.0,8.0,53,0.00,,CLR,0.00,107.00,VWS V14.01,2013-04-05 13:50:00,
2013-04-05 10:01:00,42.1,24.8,29.79,West,259,6.0,11.0,50,0.00,,CLR,0.00,100.00,VWS V14.01,2013-04-05 14:01:00,
2013-04-05 10:11:00,42.8,25.5,29.79,West,266,6.0,15.0,50,0.00,,CLR,0.00,93.00,VWS V14.01,2013-04-05 14:11:00,
2013-04-05 10:21:00,44.3,25.4,29.79,WSW,257,5.0,12.0,47,0.00,,CLR,0.00,86.00,VWS V14.01,2013-04-05 14:21:00,
2013-04-05 10:40:00,44.8,23.7,29.79,WNW,291,6.0,10.0,43,0.00,,CLR,0.00,281.00,VWS V14.01,2013-04-05 14:40:00,
2013-04-05 10:50:00,46.1,23.7,29.78,SW,235,5.0,11.0,41,0.00,,CLR,0.00,353.00,VWS V14.01,2013-04-05 14:50:00,
2013-04-05 11:01:00,47.3,23.0,29.77,West,259,10.0,14.0,38,0.00,,CLR,0.00,679.00,VWS V14.01,2013-04-05 15:01:00,
2013-04-05 11:10:00,48.3,23.9,29.77,West,263,5.0,11.0,38,0.00,,CLR,0.00,786.00,VWS V14.01,2013-04-05 15:10:00,
2013-04-05 11:31:00,50.1,22.1,29.75,West,263,9.0,13.0,33,0.00,,CLR,0.00,810.00,VWS V14.01,2013-04-05 15:31:00,
2013-04-05 11:41:00,50.5,21.8,29.75,West,270,7.0,13.0,32,0.00,,CLR,0.00,823.00,VWS V14.01,2013-04-05 15:41:00,
2013-04-05 12:01:00,51.7,22.8,29.74,West,276,0.0,11.0,32,0.00,,CLR,0.00,842.00,VWS V14.01,2013-04-05 16:01:00,
2013-04-05 12:10:00,52.0,19.9,29.74,WNW,288,0.0,10.0,28,0.00,,CLR,0.00,838.00,VWS V14.01,2013-04-05 16:10:00,
2013-04-05 12:20:00,53.2,21.8,29.72,WSW,249,12.0,14.0,29,0.00,,CLR,0.00,874.00,VWS V14.01,2013-04-05 16:20:00,
2013-04-05 12:30:00,53.9,20.7,29.71,West,266,13.0,17.0,27,0.00,,CLR,0.00,860.00,VWS V14.01,2013-04-05 16:30:00,
2013-04-05 12:41:00,54.8,22.3,29.71,WNW,285,7.0,13.0,28,0.00,,CLR,0.00,893.00,VWS V14.01,2013-04-05 16:41:00,
2013-04-05 12:51:00,55.4,22.0,29.69,WSW,258,11.0,15.0,27,0.00,,CLR,0.00,645.00,VWS V14.01,2013-04-05 16:51:00,
2013-04-05 13:01:00,54.5,20.3,29.69,WSW,244,11.0,15.0,26,0.00,,CLR,0.00,450.00,VWS V14.01,2013-04-05 17:01:00,
2013-04-05 13:11:00,53.8,20.6,29.69,West,279,16.0,24.0,27,0.00,,CLR,0.00,320.00,VWS V14.01,2013-04-05 17:11:00,
2013-04-05 13:20:00,51.9,20.7,29.69,NW,315,10.0,22.0,29,0.00,,CLR,0.00,315.00,VWS V14.01,2013-04-05 17:20:00,
2013-04-05 13:30:00,51.3,20.1,29.69,NE,43,4.0,15.0,29,0.00,,CLR,0.00,422.00,VWS V14.01,2013-04-05 17:30:00,
2013-04-05 13:41:00,53.3,21.9,29.69,NNW,333,11.0,21.0,29,0.00,,BKN090,0.00,856.00,VWS V14.01,2013-04-05 17:41:00,
2013-04-05 13:50:00,51.9,20.7,29.68,West,281,13.0,17.0,29,0.00,,BKN090,0.00,241.00,VWS V14.01,2013-04-05 17:50:00,
2013-04-05 14:01:00,52.5,20.4,29.67,WSW,257,5.0,15.0,28,0.00,,BKN090,0.00,803.00,VWS V14.01,2013-04-05 18:01:00,
2013-04-05 14:11:00,53.9,20.7,29.67,WNW,285,9.0,15.0,27,0.00,,BKN085,0.00,780.00,VWS V14.01,2013-04-05 18:11:00,
2013-04-05 14:21:00,53.5,21.2,29.66,NNW,335,5.0,15.0,28,0.00,,BKN085,0.00,137.00,VWS V14.01,2013-04-05 18:21:00,
2013-04-05 14:31:00,53.9,22.4,29.66,NW,321,6.0,22.0,29,0.00,,BKN085,0.00,712.00,VWS V14.01,2013-04-05 18:31:00,
2013-04-05 14:41:00,54.4,22.0,29.66,WNW,286,6.0,21.0,28,0.00,,BKN085,0.00,722.00,VWS V14.01,2013-04-05 18:41:00,
2013-04-05 14:51:00,55.0,22.5,29.65,WNW,295,7.0,21.0,28,0.00,,BKN085,0.00,805.00,VWS V14.01,2013-04-05 18:51:00,
2013-04-05 15:01:00,54.8,21.5,29.64,WNW,294,14.0,20.0,27,0.00,,BKN085,0.00,707.00,VWS V14.01,2013-04-05 19:01:00,
2013-04-05 15:11:00,55.0,21.6,29.64,West,274,13.0,21.0,27,0.00,,SCT070,0.00,770.00,VWS V14.01,2013-04-05 19:11:00,
2013-04-05 15:21:00,54.1,21.7,29.64,NNW,327,7.0,16.0,28,0.00,,SCT070,0.00,153.00,VWS V14.01,2013-04-05 19:21:00,
2013-04-05 15:31:00,53.2,21.0,29.64,West,274,11.0,20.0,28,0.00,,SCT070,0.00,585.00,VWS V14.01,2013-04-05 19:31:00,
2013-04-05 15:41:00,53.5,21.2,29.64,NE,41,14.0,22.0,28,0.00,,FEW070,0.00,248.00,VWS V14.01,2013-04-05 19:41:00,
2013-04-05 15:51:00,52.8,21.4,29.64,NE,36,6.0,17.0,29,0.00,,FEW070,0.00,606.00,VWS V14.01,2013-04-05 19:51:00,
2013-04-05 16:01:00,53.3,19.3,29.64,North,355,9.0,18.0,26,0.00,,FEW070,0.00,598.00,VWS V14.01,2013-04-05 20:01:00,
2013-04-05 16:11:00,53.3,19.3,29.64,West,265,12.0,20.0,26,0.00,,BKN070,0.00,519.00,VWS V14.01,2013-04-05 20:11:00,
2013-04-05 16:21:00,53.5,19.5,29.64,North,359,11.0,19.0,26,0.00,,BKN070,0.00,468.00,VWS V14.01,2013-04-05 20:21:00,
2013-04-05 16:31:00,52.8,20.6,29.65,WNW,297,5.0,19.0,28,0.00,,BKN070,0.00,396.00,VWS V14.01,2013-04-05 20:31:00,
2013-04-05 16:41:00,51.9,19.8,29.65,NW,315,13.0,16.0,28,0.00,,FEW070,0.00,348.00,VWS V14.01,2013-04-05 20:41:00,
2013-04-05 16:51:00,51.1,21.5,29.66,NW,313,4.0,19.0,31,0.00,,FEW070,0.00,320.00,VWS V14.01,2013-04-05 20:51:00,
2013-04-05 17:01:00,50.2,22.2,29.67,NW,318,5.0,19.0,33,0.00,,FEW070,0.00,295.00,VWS V14.01,2013-04-05 21:01:00,
2013-04-05 17:11:00,49.6,22.4,29.67,North,352,5.0,23.0,34,0.00,,CLR,0.00,295.00,VWS V14.01,2013-04-05 21:11:00,
2013-04-05 17:21:00,49.1,22.6,29.68,SW,236,10.0,17.0,35,0.00,,CLR,0.00,265.00,VWS V14.01,2013-04-05 21:21:00,
2013-04-05 17:31:00,48.6,21.5,29.69,NE,39,15.0,21.0,34,0.00,,CLR,0.00,232.00,VWS V14.01,2013-04-05 21:31:00,
2013-04-05 17:41:00,47.9,22.2,29.69,ENE,57,5.0,23.0,36,0.00,,CLR,0.00,56.00,VWS V14.01,2013-04-05 21:41:00,
2013-04-05 17:51:00,46.8,21.9,29.69,NNW,346,2.0,17.0,37,0.00,,CLR,0.00,62.00,VWS V14.01,2013-04-05 21:51:00,
2013-04-05 18:01:00,46.8,21.9,29.70,NW,315,5.0,13.0,37,0.00,,CLR,0.00,163.00,VWS V14.01,2013-04-05 22:01:00,
2013-04-05 18:11:00,47.0,21.5,29.70,North,359,13.0,18.0,36,0.00,,CLR,0.00,118.00,VWS V14.01,2013-04-05 22:11:00,
2013-04-05 18:21:00,46.5,20.3,29.71,North,352,6.0,18.0,35,0.00,,CLR,0.00,53.00,VWS V14.01,2013-04-05 22:21:00,
2013-04-05 18:31:00,46.1,20.0,29.71,NW,321,9.0,18.0,35,0.00,,CLR,0.00,39.00,VWS V14.01,2013-04-05 22:31:00,
2013-04-05 18:41:00,45.5,20.8,29.71,WNW,300,11.0,19.0,37,0.00,,FEW070,0.00,32.00,VWS V14.01,2013-04-05 22:41:00,
2013-04-05 18:51:00,44.9,20.2,29.72,NNW,348,3.0,18.0,37,0.00,,FEW070,0.00,21.00,VWS V14.01,2013-04-05 22:51:00,
2013-04-05 19:01:00,44.2,21.4,29.73,North,359,1.0,15.0,40,0.00,,FEW070,0.00,12.00,VWS V14.01,2013-04-05 23:01:00,
2013-04-05 19:11:00,43.2,24.9,29.73,WNW,285,3.0,17.0,48,0.00,,FEW070,0.00,7.00,VWS V14.01,2013-04-05 23:11:00,
2013-04-05 19:21:00,42.1,25.8,29.75,WNW,285,10.0,20.0,52,0.00,,FEW070,0.00,0.00,VWS V14.01,2013-04-05 23:21:00,
2013-04-05 19:31:00,41.1,25.7,29.76,NNW,342,3.0,14.0,54,0.00,,FEW070,0.00,0.00,VWS V14.01,2013-04-05 23:31:00,
2013-04-05 19:41:00,40.5,25.6,29.76,WSW,253,10.0,17.0,55,0.00,,CLR,0.00,0.00,VWS V14.01,2013-04-05 23:41:00,
2013-04-05 19:51:00,39.9,25.5,29.77,West,278,5.0,18.0,56,0.00,,CLR,0.00,0.00,VWS V14.01,2013-04-05 23:51:00,
2013-04-05 20:01:00,39.6,24.3,29.78,NW,311,13.0,25.0,54,0.00,,CLR,0.00,0.00,VWS V14.01,2013-04-06 00:01:00,
2013-04-05 20:11:00,39.3,24.5,29.78,WNW,300,20.0,22.0,55,0.00,,CLR,0.00,0.00,VWS V14.01,2013-04-06 00:11:00,
2013-04-05 20:21:00,38.9,24.6,29.79,NW,304,5.0,25.0,56,0.00,,CLR,0.00,0.00,VWS V14.01,2013-04-06 00:21:00,
2013-04-05 20:31:00,38.8,24.0,29.79,NW,308,9.0,19.0,55,0.00,,CLR,0.00,0.00,VWS V14.01,2013-04-06 00:31:00,
2013-04-05 20:41:00,38.5,23.8,29.79,NW,321,7.0,16.0,55,0.00,,CLR,0.00,0.00,VWS V14.01,2013-04-06 00:41:00,
2013-04-05 20:51:00,38.3,23.1,29.80,North,354,10.0,15.0,54,0.00,,CLR,0.00,0.00,VWS V14.01,2013-04-06 00:51:00,
2013-04-05 21:01:00,38.2,22.6,29.81,North,1,9.0,16.0,53,0.00,,CLR,0.00,0.00,VWS V14.01,2013-04-06 01:01:00,
2013-04-05 21:11:00,38.0,22.4,29.81,NW,305,12.0,22.0,53,0.00,,CLR,0.00,0.00,VWS V14.01,2013-04-06 01:11:00,
2013-04-05 21:21:00,37.8,22.2,29.81,North,1,7.0,20.0,53,0.00,,CLR,0.00,0.00,VWS V14.01,2013-04-06 01:21:00,
2013-04-05 21:31:00,37.5,21.5,29.82,ENE,64,9.0,18.0,52,0.00,,CLR,0.00,0.00,VWS V14.01,2013-04-06 01:31:00,
2013-04-05 21:41:00,37.0,21.9,29.82,WNW,302,15.0,18.0,54,0.00,,CLR,0.00,0.00,VWS V14.01,2013-04-06 01:41:00,
2013-04-05 21:50:00,36.9,21.4,29.82,NW,316,3.0,19.0,53,0.00,,CLR,0.00,0.00,VWS V14.01,2013-04-06 01:50:00,
2013-04-05 22:01:00,36.6,21.1,29.82,NW,305,11.0,26.0,53,0.00,,CLR,0.00,0.00,VWS V14.01,2013-04-06 02:01:00,
2013-04-05 22:11:00,36.2,21.2,29.82,WNW,297,16.0,22.0,54,0.00,,CLR,0.00,0.00,VWS V14.01,2013-04-06 02:11:00,
2013-04-05 22:21:00,35.9,20.9,29.82,NW,309,17.0,23.0,54,0.00,,CLR,0.00,0.00,VWS V14.01,2013-04-06 02:21:00,
2013-04-05 22:31:00,35.8,20.8,29.82,North,351,11.0,25.0,54,0.00,,CLR,0.00,0.00,VWS V14.01,2013-04-06 02:31:00,
2013-04-05 22:41:00,35.5,21.0,29.82,WNW,302,12.0,17.0,55,0.00,,CLR,0.00,0.00,VWS V14.01,2013-04-06 02:41:00,
2013-04-05 23:01:00,35.0,20.0,29.82,North,349,6.0,19.0,54,0.00,,CLR,0.00,0.00,VWS V14.01,2013-04-06 03:01:00,
2013-04-05 23:11:00,34.9,19.5,29.82,NW,314,12.0,19.0,53,0.00,,CLR,0.00,0.00,VWS V14.01,2013-04-06 03:11:00,
2013-04-05 23:21:00,34.6,19.7,29.83,NW,323,6.0,18.0,54,0.00,,CLR,0.00,0.00,VWS V14.01,2013-04-06 03:21:00,
2013-04-05 23:31:00,34.3,19.4,29.83,NW,307,2.0,17.0,54,0.00,,CLR,0.00,0.00,VWS V14.01,2013-04-06 03:31:00,
2013-04-05 23:41:00,34.0,19.1,29.83,WNW,297,5.0,10.0,54,0.00,,CLR,0.00,0.00,VWS V14.01,2013-04-06 03:41:00,
2013-04-05 23:51:00,33.8,18.9,29.84,NNW,338,7.0,13.0,54,0.00,,CLR,0.00,0.00,VWS V14.01,2013-04-06 03:51:00,